Regional Weather Roundup
Issued by NWS

Home | Current Version | Previous Version | Graphics & Text | Print | Product List | Glossary On
Versions: 1 2 3 4 5 6 7 8 9 10 11 12 13 14 15 16 17 18 19 20 21 22 23 24 25 26 27 28 29 30 31 32 33 34 35 36 37 38 39 40 41 42 43 44 45 46 47 48 49 50
000
ASUS43 KFSD 221302
RWRSD

WEATHER ROUNDUP FOR SOUTH DAKOTA
NATIONAL WEATHER SERVICE SIOUX FALLS SD
800 AM CDT TUE MAY 22 2018

NOTE: "FAIR" INDICATES FEW OR NO CLOUDS BELOW 12,000 FEET WITH NO
SIGNIFICANT WEATHER AND/OR OBSTRUCTIONS TO VISIBILITY.


SDZ001>005-009-010-012>017-221400-
NORTHWEST AND NORTH CENTRAL SOUTH DAKOTA

CITY           SKY/WX    TMP DP  RH WIND       PRES   REMARKS
BUFFALO          N/A     56  48  74 CALM      29.89R
FAITH            N/A     57  54  89 S10       29.94R
MOBRIDGE       MOSUNNY   60  56  86 S3        29.93R
$$

SDZ012>016-024>037-041>051-057-063-072>074-221400-
SOUTHWEST AND SOUTH CENTRAL SOUTH DAKOTA

CITY           SKY/WX    TMP DP  RH WIND       PRES   REMARKS
RAPID CTY ARPT MOSUNNY   59  51  75 NW5       29.95R
PIERRE         MOSUNNY   58  56  93 SE9       29.93R
CUSTER         PTSUNNY   58  44  60 CALM      30.06R
ELLSWORTH AFB  MOSUNNY   60  55  84 NW3       29.95R
PHILIP         SUNNY     59  57  93 CALM      29.93R
PINE RIDGE     MOSUNNY   58  55  90 SE6       29.95S
SPEARFISH      FAIR      55  46  71 CALM      30.00R
WINNER         FAIR      65  56  72 SE12      29.95R
$$

SDZ004>011-016>023-039-040-221400-
NORTHEAST SOUTH DAKOTA

CITY           SKY/WX    TMP DP  RH WIND       PRES   REMARKS
ABERDEEN       MOSUNNY   60  56  86 SE8       29.98S
WATERTOWN      FOG       54  54 100 S6        30.01R VSB 1/2
BROOKINGS      FOG       53  53 100 S6        30.03R VSB 1/4
SISSETON         N/A     57  56  96 SE8       30.00R
$$

SDZ017-020-022-023-036>040-048>070-221400-
SOUTHEAST SOUTH DAKOTA

CITY           SKY/WX    TMP DP  RH WIND       PRES   REMARKS
SIOUX FALLS    CLOUDY    55  55 100 E5        30.02S
HURON          PTSUNNY   59  56  89 MISG      29.97S
MITCHELL       MOSUNNY   60  57  89 SE8       29.98R FOG
YANKTON        CLOUDY    60  58  92 E6        30.00R FOG
$$

ABBREVIATIONS USED IN REMARKS
   TC - TEMPERATURE IN CELSIUS
  WCI - WIND CHILL INDEX
   HX - HEAT INDEX
  VSB - VISIBILITY




USA.gov is the U.S. government's official web portal to all federal, state and local government web resources and services.